Location: Houston
(29.7630°N, 95.3630°W)
Time: 10:21:01
(UTC-05:00)

Daily predictions for brighter satellites

Satellite Brightness Start Highest point End
(mag) Time Altitude Azimuth Time Altitude Azimuth Time Altitude Azimuth
Milstar 3 4.1 19:16:49 10° W 19:25:33 84° S 19:42:52 10° E
Cosmos-2242 4.2 19:28:01 10° SE 19:31:25 23° E 19:34:50 10° NE
Cosmos 192 4.3 19:27:42 10° S 19:32:38 79° ESE 19:37:36 10° NNE
Cosmos 2034 Rocket 4.5 19:28:10 10° SSE 19:33:48 37° E 19:39:31 10° NNE
Cosmos 1464 Rocket 4.1 19:28:49 10° SSE 19:34:53 54° E 19:40:54 10° NNE
Gbstr 26 Del rocket 3.8 19:33:37 10° S 19:37:14 31° SE 19:41:25 10° ENE
Cosmos 2056 Rocket 3.6 19:33:00 10° N 19:38:24 64° ENE 19:43:44 10° SSE
Cosmos 1805 4.1 19:35:16 10° SSE 19:38:40 29° E 19:42:05 10° NNE
Cosmos 1441 Rocket 4.0 19:35:09 10° NNW 19:38:49 56° W 19:42:29 10° S
ATLAS CENTAUR R/B 1.2 19:35:46 10° NNW 19:39:50 87° ENE 19:43:34 10° SSE
Cosmos 1953 3.0 19:36:29 10° SSE 19:40:00 31° E 19:43:33 10° NNE
ISS -3.2 19:36:53 10° SSW 19:40:02 54° SE 19:43:13 10° NE
Meteor 1-28 Rocket 3.3 19:36:55 10° NNE 19:40:33 53° E 19:44:10 10° S
Cosmos 2278 Rocket 2.9 19:36:58 10° NNW 19:42:32 60° WSW 19:48:03 10° S
ALOS 4.1 19:42:28 10° E 19:44:26 13° ENE 19:46:25 10° NE
SL-19 R/B 4.3 19:39:06 10° SSE 19:44:35 63° ENE 19:50:20 10° N
Cosmos 1371 Rocket 4.4 19:42:56 10° NNW 19:48:14 73° WSW 19:53:33 10° S
Meteosat 1 Rocket2 4.5 19:41:26 10° WSW 19:49:08 48° SSE 19:53:39 13° E
Cosmos 2297 3.7 19:44:18 10° NNW 19:49:57 70° ENE 19:55:32 10° SSE
MSX 4.4 19:46:51 10° S 19:52:31 64° WSW 19:58:14 10° NNW
Delta 168 3.8 19:49:40 10° WSW 19:53:45 49° S 19:58:40 14° E
Cosmos 1707 4.4 19:51:06 10° NNW 19:54:42 38° W 19:58:17 10° SSW
Cosmos 1943 4.2 19:50:25 10° SSE 19:54:48 24° ESE 19:59:11 10° NE
GPS 2-04 Rocket1 2.6 19:51:48 10° WSW 19:55:14 67° NNW 19:58:12 14° ENE
IDEFIX/ARIANE 42P 4.4 19:51:22 10° SSW 19:56:04 34° W 20:00:49 10° NNW
Cosmos 1408 Rocket 3.8 19:53:03 10° N 19:57:12 43° E 20:01:17 10° SSE
FUSE 4.4 19:53:26 10° WSW 19:58:37 50° S 20:02:37 16° ESE
ASC 2 Rocket 4.1 19:55:08 10° WSW 19:59:23 34° S 20:02:29 14° SE
Cosmos 1603 3.7 19:54:04 10° S 19:59:45 72° ESE 20:05:28 10° NNE
USA 215 3.4 19:55:19 10° NE 20:01:51 83° NW 20:08:23 10° SW
Cosmos 1470 4.0 19:59:18 10° SE 20:02:12 20° E 20:05:06 10° NE
Meteor 1-24 Rocket 3.9 19:57:48 10° NNW 20:03:20 73° W 20:08:39 10° S
NOAA 12 4.0 19:58:55 10° SSE 20:04:07 69° ENE 20:09:22 10° N
SL-8 R/B 4.4 20:02:12 10° WSW 20:06:52 52° NW 20:11:32 10° NE
SAR-Lupe-1 4.0 20:03:39 10° SSE 20:07:12 87° WSW 20:10:46 10° NNW
SJ-6B 2.8 20:06:07 10° SSE 20:10:02 87° W 20:14:05 10° NNW
FREGAT/IRIS 2.5 20:07:32 10° SSE 20:10:37 75° ENE 20:13:42 10° N
Resurs 1-3 4.1 20:10:01 13° SE 20:13:34 37° ENE 20:17:36 10° N
Helios 1A 3.3 20:10:17 10° SE 20:14:15 42° ENE 20:18:14 10° N
Resurs 01 Rocket 1.7 20:12:32 10° SSE 20:16:52 55° ENE 20:21:13 10° N
Meteor 1-29 2.8 20:13:37 10° NNE 20:17:07 69° E 20:20:34 10° S
SeaSat 1 3.3 20:15:13 20° ENE 20:17:17 27° ESE 20:21:25 10° SSE
Cosmos 1674 4.4 20:19:47 10° NNE 20:21:24 19° NE 20:21:24 19° NE
Cosmos 1758 3.9 20:19:01 10° SSW 20:23:02 62° W 20:27:06 10° N
In-Cosmos 22 4.2 20:18:05 10° N 20:23:54 83° E 20:29:35 10° S
Cosmos 1743 Rocket 3.9 20:22:13 10° N 20:26:26 42° E 20:27:54 31° SE
ASTRO E2 2.6 20:22:24 10° W 20:26:28 79° N 20:27:45 42° E
FengYun 1-2 T 4.3 20:21:45 10° SSE 20:27:07 56° ENE 20:32:28 10° N
SEDSat Delta rocket 4.0 20:25:54 10° W 20:32:35 79° N 20:35:59 32° E
Cosmos 1452 Rocket 3.4 20:29:34 10° NNW 20:34:50 89° ENE 20:40:05 10° SSE
ATLAS 5 CENTAUR R/B 4.3 20:32:18 10° W 20:35:52 21° NW 20:39:37 10° N
Myojo/LAPS 4.1 20:39:06 10° WSW 20:41:20 33° S 20:41:32 33° S
Nadezhda 4 Rocket 3.8 20:41:53 10° N 20:48:09 81° E 20:54:19 10° S
Meteor 1-21 Rocket 4.4 20:48:01 10° NNW 20:53:33 71° W 20:59:02 10° S
ASTEX 1 3.3 20:49:17 10° N 20:54:12 88° WNW 20:59:05 10° S
Cosmos 1420 Rocket 3.9 20:50:38 10° NNW 20:55:57 75° ENE 20:56:55 59° SE
Cosmos 2142 Rocket 4.4 20:49:49 10° S 20:56:04 65° E 21:02:24 10° NNE
Cosmos 1092 Rocket 3.8 20:50:03 10° N 20:56:12 67° E 20:58:30 39° SSE
Atlas Centaur 2 3.7 20:51:52 10° W 20:59:53 45° SSW 21:03:25 29° SSE
CENTAUR R/B 2.7 20:57:03 10° SW 21:02:51 65° WNW 21:09:21 10° NNE
Cosmos 1634 Rocket 3.8 20:58:32 10° S 21:04:47 83° E 21:11:01 10° N
OAO 3 Rocket 3.7 21:03:33 10° WNW 21:07:53 51° N 21:07:53 51° N
FENGYUN 3A 3.8 21:10:21 41° S 21:12:14 72° WSW 21:17:37 10° NNW
ISS -0.2 21:15:29 10° WNW 21:16:45 12° NW 21:16:49 12° NNW
ALOS 3.1 21:20:49 45° WSW 21:21:24 48° W 21:25:55 10° NNW
BREEZE-M DEB (TANK) 4.2 21:15:10 10° SW 21:37:09 86° SE 21:38:19 68° NE
Cosmos 1943 Rocket 4.4 21:38:53 10° N 21:39:39 14° N 21:39:39 14° N
Cosmos 2369 Rocket 3.4 21:38:25 10° NNW 21:41:35 35° NNW 21:41:35 35° NNW
SeaSat 1 4.2 21:55:12 28° WNW 21:55:12 28° WNW 21:58:54 10° WSW
